This is the latest recevied weather packets stored in our database for station/object WL7BUN-9. If no packets are shown the sender has not sent any weather packets the latest 10 day(s).
| Time | Temp. | Humidity | Pressure | Rain* | Wind** | Luminosity | Snow |
|---|---|---|---|---|---|---|---|
| 1788138988 | 55° F | 70% | 739.3 mmHg | 0 in | - | 1116 W/m² | - |
| 1788138389 | 55° F | 65% | 739.3 mmHg | 0 in | - | 1896 W/m² | - |
| 1788137789 | 55° F | 63% | 739.5 mmHg | 0 in | - | 1831 W/m² | - |
| 1788137188 | 56° F | 61% | 739.6 mmHg | 0 in | - | 1158 W/m² | - |
| 1788136588 | 56° F | 61% | 739.6 mmHg | 0 in | - | 1281 W/m² | - |
| 1788135988 | 55° F | 68% | 739.6 mmHg | 0 in | - | 1229 W/m² | - |
| 1788135388 | 54° F | 68% | 739.6 mmHg | 0 in | - | 1146 W/m² | - |
| 1788134788 | 55° F | 65% | 739.8 mmHg | 0 in | - | 1112 W/m² | - |
| 1788134188 | 55° F | 63% | 739.9 mmHg | 0 in | - | 1129 W/m² | - |
| 1788133588 | 55° F | 67% | 740 mmHg | 0 in | - | 1155 W/m² | - |
| 1788132988 | 56° F | 62% | 740.2 mmHg | 0 in | - | 1195 W/m² | - |
| 1788132388 | 56° F | 60% | 740.3 mmHg | 0 in | - | 1221 W/m² | - |
| 1788131788 | 56° F | 61% | 740.2 mmHg | 0 in | - | 1244 W/m² | - |
| 1788131253 | 56° F | 62% | 740.2 mmHg | 0 in | - | 1261 W/m² | - |
| 1788130653 | 57° F | 60% | 740.2 mmHg | 0 in | - | 1273 W/m² | - |
| 1788130053 | 56° F | 57% | 740.2 mmHg | 0 in | - | 1287 W/m² | - |
| 1788129456 | 57° F | 56% | 740.2 mmHg | 0 in | - | 1295 W/m² | - |
| 1788128856 | 56° F | 57% | 740.2 mmHg | 0 in | - | 1291 W/m² | - |
| 1788128254 | 56° F | 56% | 740.5 mmHg | 0 in | - | 1318 W/m² | - |
| 1788127653 | 56° F | 58% | 740.5 mmHg | 0 in | - | 1313 W/m² | - |
| 1788127054 | 56° F | 58% | 740.6 mmHg | 0 in | - | 1352 W/m² | - |
| 1788126454 | 56° F | 59% | 740.7 mmHg | 0 in | - | 1324 W/m² | - |
| 1788125853 | 56° F | 60% | 740.5 mmHg | 0 in | - | 1368 W/m² | - |
| 1788125254 | 55° F | 61% | 740.7 mmHg | 0 in | - | 1310 W/m² | - |
| 1788124653 | 55° F | 61% | 740.5 mmHg | 0 in | - | 1292 W/m² | - |
* Rain latest hour (hover to see other rain measurements)
** Current wind speed in m/s (hover to see current wind gust speed)